BEIDOU-2 M4 (C12)

Last updated on Thu Nov 21 2024 00:03:16 GMT+0000 (Coordinated Universal Time)

1 38251U 12018B 24325.11629750 -.00000076 00000+0 00000+0 0 9990 2 38251 56.1340 323.4036 0016416 268.8007 91.0190 1.86232014 85257
UTC large
Height (km)
Speed (km/s)
/
Latitude / Longitude
Inclination (degrees)
Orbital Period (minutes)
Azimuth
Elevation
Range (km)
Doppler Factor

Next 0 passes for location: London (51.5072 / 0.1276)

Sorry there are no passes over London.